Time,TemperatureF,DewpointF,PressureIn,WindDirection,WindDirectionDegrees,WindSpeedMPH,WindSpeedGustMPH,Humidity,HourlyPrecipIn,Conditions,Clouds,dailyrainin,SoftwareType,DateUTC
2013-01-13 00:00:00,43.7,41.0,29.83,NE,45,2.0,0.0,90,0.01,,,0.01,meteohub,2013-01-13 05:00:00,
2013-01-13 00:02:00,43.7,41.0,29.83,NE,45,2.0,2.0,90,0.01,,,0.01,meteohub,2013-01-13 05:02:00,
2013-01-13 00:04:00,43.9,41.2,29.83,North,0,0.0,2.0,90,0.01,,,0.01,meteohub,2013-01-13 05:04:00,
2013-01-13 00:09:00,44.2,41.7,29.83,North,0,2.0,2.0,91,0.01,,,0.00,meteohub,2013-01-13 05:09:00,
2013-01-13 00:14:00,44.6,41.9,29.82,North,0,4.0,4.0,90,0.02,,,0.01,meteohub,2013-01-13 05:14:00,
2013-01-13 00:19:00,44.6,41.9,29.81,North,0,5.0,5.0,90,0.02,,,0.01,meteohub,2013-01-13 05:19:00,
2013-01-13 00:24:00,44.8,41.7,29.81,North,0,3.0,4.0,89,0.04,,,0.02,meteohub,2013-01-13 05:24:00,
2013-01-13 00:29:00,44.6,41.2,29.80,North,0,3.0,5.0,88,0.04,,,0.02,meteohub,2013-01-13 05:29:00,
2013-01-13 00:34:00,44.4,41.2,29.80,North,0,3.0,6.0,88,0.05,,,0.04,meteohub,2013-01-13 05:34:00,
2013-01-13 00:40:00,44.2,40.3,29.80,NE,45,4.0,6.0,86,0.05,,,0.05,meteohub,2013-01-13 05:40:00,
2013-01-13 00:45:00,43.9,39.7,29.80,NE,45,2.0,6.0,85,0.06,,,0.06,meteohub,2013-01-13 05:45:00,
2013-01-13 00:50:00,43.5,39.0,29.80,North,0,3.0,6.0,84,0.07,,,0.07,meteohub,2013-01-13 05:50:00,
2013-01-13 00:55:00,43.2,38.3,29.80,NE,45,4.0,6.0,83,0.07,,,0.07,meteohub,2013-01-13 05:55:00,
2013-01-13 01:00:00,43.0,38.1,29.80,North,0,4.0,6.0,83,0.08,,,0.08,meteohub,2013-01-13 06:00:00,
2013-01-13 01:05:00,43.0,38.1,29.80,North,0,4.0,5.0,83,0.09,,,0.09,meteohub,2013-01-13 06:05:00,
2013-01-13 01:10:00,42.3,37.8,29.79,North,0,3.0,4.0,84,0.09,,,0.11,meteohub,2013-01-13 06:10:00,
2013-01-13 01:15:00,42.1,37.9,29.78,NE,45,4.0,4.0,85,0.11,,,0.12,meteohub,2013-01-13 06:15:00,
2013-01-13 01:21:00,41.9,37.8,29.77,North,0,4.0,4.0,85,0.09,,,0.12,meteohub,2013-01-13 06:21:00,
2013-01-13 01:26:00,41.5,37.4,29.78,North,0,3.0,4.0,85,0.09,,,0.13,meteohub,2013-01-13 06:26:00,
2013-01-13 01:31:00,41.4,37.2,29.77,East,90,3.0,4.0,85,0.08,,,0.13,meteohub,2013-01-13 06:31:00,
2013-01-13 01:36:00,41.2,37.0,29.77,North,0,4.0,6.0,85,0.08,,,0.13,meteohub,2013-01-13 06:36:00,
2013-01-13 01:41:00,41.2,37.4,29.77,East,90,6.0,6.0,86,0.07,,,0.13,meteohub,2013-01-13 06:41:00,
2013-01-13 01:46:00,41.0,37.2,29.77,North,0,4.0,6.0,86,0.07,,,0.14,meteohub,2013-01-13 06:46:00,
2013-01-13 01:51:00,40.8,37.0,29.77,North,0,2.0,6.0,86,0.07,,,0.14,meteohub,2013-01-13 06:51:00,
2013-01-13 01:56:00,40.6,36.9,29.78,North,0,4.0,6.0,86,0.06,,,0.14,meteohub,2013-01-13 06:56:00,
2013-01-13 02:01:00,40.5,36.7,29.77,North,0,2.0,4.0,86,0.06,,,0.15,meteohub,2013-01-13 07:01:00,
2013-01-13 02:06:00,40.1,36.3,29.78,NW,315,3.0,4.0,86,0.06,,,0.15,meteohub,2013-01-13 07:06:00,
2013-01-13 02:12:00,39.9,36.1,29.78,NE,45,4.0,4.0,86,0.06,,,0.17,meteohub,2013-01-13 07:12:00,
2013-01-13 02:17:00,39.9,36.1,29.78,North,0,4.0,4.0,86,0.06,,,0.18,meteohub,2013-01-13 07:17:00,
2013-01-13 02:22:00,39.7,36.0,29.78,North,0,2.0,4.0,86,0.06,,,0.18,meteohub,2013-01-13 07:22:00,
2013-01-13 02:27:00,39.7,36.1,29.79,NE,45,2.0,4.0,87,0.06,,,0.19,meteohub,2013-01-13 07:27:00,
2013-01-13 02:32:00,39.7,36.1,29.79,North,0,2.0,4.0,87,0.07,,,0.20,meteohub,2013-01-13 07:32:00,
2013-01-13 02:37:00,39.6,36.0,29.79,North,0,3.0,4.0,87,0.08,,,0.21,meteohub,2013-01-13 07:37:00,
2013-01-13 02:42:00,39.6,36.0,29.78,NE,45,3.0,3.0,87,0.09,,,0.24,meteohub,2013-01-13 07:42:00,
2013-01-13 02:47:00,39.4,36.1,29.78,NE,45,3.0,3.0,88,0.11,,,0.24,meteohub,2013-01-13 07:47:00,
2013-01-13 02:52:00,39.4,36.1,29.78,NE,45,3.0,4.0,88,0.11,,,0.25,meteohub,2013-01-13 07:52:00,
2013-01-13 02:57:00,39.2,36.0,29.78,North,0,3.0,6.0,88,0.12,,,0.27,meteohub,2013-01-13 07:57:00,
2013-01-13 03:02:00,39.0,36.1,29.77,NE,45,4.0,6.0,89,0.13,,,0.28,meteohub,2013-01-13 08:02:00,
2013-01-13 03:07:00,39.0,36.1,29.77,East,90,4.0,5.0,89,0.13,,,0.30,meteohub,2013-01-13 08:07:00,
2013-01-13 03:12:00,38.8,36.0,29.77,NE,45,2.0,6.0,89,0.15,,,0.32,meteohub,2013-01-13 08:12:00,
2013-01-13 03:17:00,38.7,35.8,29.77,North,0,0.0,6.0,89,0.14,,,0.32,meteohub,2013-01-13 08:17:00,
2013-01-13 03:22:00,38.7,36.0,29.78,North,0,0.0,6.0,90,0.17,,,0.34,meteohub,2013-01-13 08:22:00,
2013-01-13 03:27:00,38.7,36.0,29.78,North,0,4.0,4.0,90,0.17,,,0.35,meteohub,2013-01-13 08:27:00,
2013-01-13 03:32:00,38.7,36.0,29.77,NW,315,4.0,4.0,90,0.15,,,0.35,meteohub,2013-01-13 08:32:00,
2013-01-13 03:37:00,38.7,36.0,29.77,North,0,2.0,4.0,90,0.15,,,0.38,meteohub,2013-01-13 08:37:00,
2013-01-13 03:42:00,38.7,36.0,29.77,North,0,4.0,4.0,90,0.14,,,0.38,meteohub,2013-01-13 08:42:00,
2013-01-13 03:47:00,38.7,36.0,29.77,NNE,23,0.0,4.0,90,0.13,,,0.38,meteohub,2013-01-13 08:47:00,
2013-01-13 03:52:00,38.7,36.0,29.78,North,0,2.0,4.0,90,0.13,,,0.39,meteohub,2013-01-13 08:52:00,
2013-01-13 03:57:00,38.5,35.8,29.78,North,0,0.0,4.0,90,0.13,,,0.40,meteohub,2013-01-13 08:57:00,
2013-01-13 04:02:00,38.5,35.8,29.78,NW,315,0.0,2.0,90,0.12,,,0.40,meteohub,2013-01-13 09:02:00,
2013-01-13 04:07:00,38.5,35.8,29.78,NE,45,2.0,3.0,90,0.11,,,0.41,meteohub,2013-01-13 09:07:00,
2013-01-13 04:12:00,38.5,35.8,29.77,NE,45,1.0,3.0,90,0.11,,,0.43,meteohub,2013-01-13 09:12:00,
2013-01-13 04:17:00,38.5,35.8,29.77,NE,45,2.0,3.0,90,0.12,,,0.45,meteohub,2013-01-13 09:17:00,
2013-01-13 04:22:00,38.5,36.1,29.74,East,90,3.0,5.0,91,0.12,,,0.46,meteohub,2013-01-13 09:22:00,
2013-01-13 04:27:00,38.5,36.1,29.75,West,270,1.0,5.0,91,0.12,,,0.47,meteohub,2013-01-13 09:27:00,
2013-01-13 04:32:00,38.3,36.0,29.75,NNW,338,2.0,5.0,91,0.12,,,0.48,meteohub,2013-01-13 09:32:00,
2013-01-13 04:37:00,38.3,36.0,29.75,NW,315,2.0,5.0,91,0.12,,,0.50,meteohub,2013-01-13 09:37:00,
2013-01-13 04:42:00,38.3,36.0,29.75,North,0,3.0,3.0,91,0.13,,,0.51,meteohub,2013-01-13 09:42:00,
2013-01-13 04:47:00,38.3,36.0,29.74,NE,45,3.0,4.0,91,0.13,,,0.52,meteohub,2013-01-13 09:47:00,
2013-01-13 04:52:00,38.3,36.0,29.74,North,0,2.0,4.0,91,0.12,,,0.52,meteohub,2013-01-13 09:52:00,
2013-01-13 04:57:00,38.3,36.0,29.74,NE,45,2.0,4.0,91,0.12,,,0.52,meteohub,2013-01-13 09:57:00,
2013-01-13 05:02:00,38.3,36.0,29.74,NW,315,3.0,4.0,91,0.11,,,0.52,meteohub,2013-01-13 10:02:00,
2013-01-13 05:07:00,38.3,36.0,29.74,North,0,2.0,4.0,91,0.11,,,0.53,meteohub,2013-01-13 10:07:00,
2013-01-13 05:12:00,38.3,36.0,29.73,NE,45,4.0,4.0,91,0.11,,,0.53,meteohub,2013-01-13 10:12:00,
2013-01-13 05:17:00,38.3,36.0,29.71,NE,45,4.0,4.0,91,0.08,,,0.53,meteohub,2013-01-13 10:17:00,
2013-01-13 05:22:00,38.1,35.8,29.71,NE,45,4.0,4.0,91,0.06,,,0.53,meteohub,2013-01-13 10:22:00,
2013-01-13 05:27:00,38.1,35.8,29.72,North,0,3.0,7.0,91,0.06,,,0.53,meteohub,2013-01-13 10:27:00,
2013-01-13 05:32:00,38.1,35.8,29.74,NW,315,5.0,7.0,91,0.04,,,0.53,meteohub,2013-01-13 10:32:00,
2013-01-13 05:37:00,38.1,35.8,29.77,NW,315,5.0,6.0,91,0.04,,,0.53,meteohub,2013-01-13 10:37:00,
2013-01-13 05:42:00,37.9,35.6,29.77,North,0,5.0,6.0,91,0.02,,,0.53,meteohub,2013-01-13 10:42:00,
2013-01-13 05:47:00,37.9,35.6,29.76,NW,315,4.0,9.0,91,0.01,,,0.53,meteohub,2013-01-13 10:47:00,
2013-01-13 05:52:00,37.8,35.4,29.77,North,0,4.0,9.0,91,0.01,,,0.53,meteohub,2013-01-13 10:52:00,
2013-01-13 05:57:00,37.6,35.2,29.77,North,0,2.0,9.0,91,0.01,,,0.53,meteohub,2013-01-13 10:57:00,
2013-01-13 06:02:00,32.0,12.6,33.41,NW,315,4.0,5.0,44,0.01,,,0.53,meteohub,2013-01-13 11:02:00,
2013-01-13 06:07:00,37.2,33.8,29.78,North,0,2.0,5.0,87,0.00,,,0.53,meteohub,2013-01-13 11:07:00,
2013-01-13 06:12:00,37.2,33.4,29.77,NE,45,3.0,6.0,86,0.00,,,0.53,meteohub,2013-01-13 11:12:00,
2013-01-13 06:17:00,37.2,33.4,29.76,NE,45,4.0,6.0,86,0.00,,,0.53,meteohub,2013-01-13 11:17:00,
2013-01-13 06:22:00,37.2,33.4,29.77,North,0,4.0,5.0,86,0.00,,,0.53,meteohub,2013-01-13 11:22:00,
2013-01-13 06:27:00,37.2,33.4,29.76,NE,45,3.0,4.0,86,0.00,,,0.53,meteohub,2013-01-13 11:27:00,
2013-01-13 06:32:00,37.2,33.4,29.76,NE,45,2.0,4.0,86,0.00,,,0.53,meteohub,2013-01-13 11:32:00,
2013-01-13 06:37:00,37.2,33.4,29.75,NNE,23,5.0,5.0,86,0.00,,,0.53,meteohub,2013-01-13 11:37:00,
2013-01-13 06:42:00,37.2,33.4,29.76,NE,45,2.0,5.0,86,0.00,,,0.53,meteohub,2013-01-13 11:42:00,
2013-01-13 06:47:00,37.2,33.4,29.77,North,0,2.0,5.0,86,0.00,,,0.53,meteohub,2013-01-13 11:47:00,
2013-01-13 06:52:00,37.2,33.4,29.77,West,270,2.0,5.0,86,0.00,,,0.53,meteohub,2013-01-13 11:52:00,
2013-01-13 06:57:00,37.2,33.4,29.76,NE,45,2.0,3.0,86,0.00,,,0.53,meteohub,2013-01-13 11:57:00,
2013-01-13 07:02:00,37.2,33.4,29.76,North,0,2.0,3.0,86,0.00,,,0.53,meteohub,2013-01-13 12:02:00,
2013-01-13 07:07:00,37.0,33.3,29.78,NW,315,2.0,4.0,86,0.00,,,0.53,meteohub,2013-01-13 12:07:00,
2013-01-13 07:12:00,37.0,33.3,29.79,North,0,3.0,4.0,86,0.00,,,0.53,meteohub,2013-01-13 12:12:00,
2013-01-13 07:17:00,37.0,33.3,29.79,North,0,2.0,4.0,86,0.00,,,0.53,meteohub,2013-01-13 12:17:00,
2013-01-13 07:22:00,37.2,33.4,29.78,NE,45,2.0,4.0,86,0.00,,,0.53,meteohub,2013-01-13 12:22:00,
2013-01-13 07:27:00,37.2,33.4,29.79,North,0,2.0,4.0,86,0.00,,,0.53,meteohub,2013-01-13 12:27:00,
2013-01-13 07:32:00,37.2,33.4,29.78,West,270,0.0,3.0,86,0.00,,,0.53,meteohub,2013-01-13 12:32:00,
2013-01-13 07:37:00,37.2,33.4,29.80,West,270,0.0,3.0,86,0.00,,,0.53,meteohub,2013-01-13 12:37:00,
2013-01-13 07:42:00,37.2,33.4,29.78,NE,45,0.0,2.0,86,0.00,,,0.53,meteohub,2013-01-13 12:42:00,
2013-01-13 07:47:00,37.2,33.4,29.78,NE,45,0.0,2.0,86,0.00,,,0.53,meteohub,2013-01-13 12:47:00,
2013-01-13 07:52:00,37.2,33.4,29.78,East,90,0.0,0.0,86,0.00,,,0.53,meteohub,2013-01-13 12:52:00,
2013-01-13 07:57:00,37.2,33.4,29.79,NE,45,1.0,0.0,86,0.00,,,0.53,meteohub,2013-01-13 12:57:00,
2013-01-13 08:02:00,37.2,33.4,29.80,NE,45,0.0,2.0,86,0.00,,,0.53,meteohub,2013-01-13 13:02:00,
2013-01-13 08:08:00,37.2,33.4,29.79,North,0,0.0,2.0,86,0.00,,,0.53,meteohub,2013-01-13 13:08:00,
2013-01-13 08:13:00,37.2,33.4,29.79,NW,315,0.0,2.0,86,0.00,,,0.53,meteohub,2013-01-13 13:13:00,
2013-01-13 08:18:00,37.2,33.4,29.80,NE,45,0.0,0.0,86,0.00,,,0.53,meteohub,2013-01-13 13:18:00,
2013-01-13 08:23:00,37.2,33.4,29.80,WNW,293,0.0,0.0,86,0.00,,,0.53,meteohub,2013-01-13 13:23:00,
2013-01-13 08:28:00,37.2,33.4,29.81,SW,225,0.0,0.0,86,0.00,,,0.53,meteohub,2013-01-13 13:28:00,
2013-01-13 08:33:00,37.2,33.4,29.81,NW,315,0.0,0.0,86,0.00,,,0.53,meteohub,2013-01-13 13:33:00,
2013-01-13 08:38:00,37.4,34.7,29.81,East,90,0.0,0.0,90,0.00,,,0.53,meteohub,2013-01-13 13:38:00,
2013-01-13 08:44:00,37.4,34.7,29.81,NE,45,0.0,0.0,90,0.00,,,0.53,meteohub,2013-01-13 13:44:00,
2013-01-13 08:49:00,37.4,34.7,29.80,NE,45,0.0,0.0,90,0.00,,,0.53,meteohub,2013-01-13 13:49:00,
2013-01-13 08:54:00,37.6,34.9,29.81,West,270,0.0,0.0,90,0.00,,,0.53,meteohub,2013-01-13 13:54:00,
2013-01-13 08:59:00,37.6,34.9,29.81,NW,315,0.0,0.0,90,0.00,,,0.53,meteohub,2013-01-13 13:59:00,
2013-01-13 09:04:00,37.8,35.1,29.81,South,180,0.0,0.0,90,0.00,,,0.53,meteohub,2013-01-13 14:04:00,
2013-01-13 09:09:00,37.8,35.1,29.81,South,180,0.0,0.0,90,0.00,,,0.53,meteohub,2013-01-13 14:09:00,
2013-01-13 09:14:00,37.8,35.1,29.82,South,180,0.0,0.0,90,0.00,,,0.53,meteohub,2013-01-13 14:14:00,
2013-01-13 09:20:00,37.8,35.1,29.82,West,270,0.0,0.0,90,0.00,,,0.53,meteohub,2013-01-13 14:20:00,
2013-01-13 09:25:00,37.8,35.1,29.82,North,0,0.0,0.0,90,0.00,,,0.53,meteohub,2013-01-13 14:25:00,
2013-01-13 09:30:00,37.8,35.1,29.82,NW,315,0.0,0.0,90,0.00,,,0.53,meteohub,2013-01-13 14:30:00,
2013-01-13 09:35:00,37.9,35.2,29.82,NW,315,0.0,0.0,90,0.00,,,0.53,meteohub,2013-01-13 14:35:00,
2013-01-13 09:40:00,37.9,35.2,29.81,NW,315,0.0,0.0,90,0.00,,,0.53,meteohub,2013-01-13 14:40:00,
2013-01-13 09:45:00,37.9,35.2,29.81,NW,315,0.0,0.0,90,0.00,,,0.53,meteohub,2013-01-13 14:45:00,
2013-01-13 09:50:00,37.9,35.2,29.82,West,270,0.0,0.0,90,0.00,,,0.53,meteohub,2013-01-13 14:50:00,
2013-01-13 09:55:00,38.1,35.4,29.82,West,270,0.0,0.0,90,0.00,,,0.53,meteohub,2013-01-13 14:55:00,
2013-01-13 10:01:00,38.1,35.4,29.82,South,180,0.0,0.0,90,0.00,,,0.53,meteohub,2013-01-13 15:01:00,
2013-01-13 10:06:00,38.1,35.4,29.82,SW,225,0.0,0.0,90,0.00,,,0.53,meteohub,2013-01-13 15:06:00,
2013-01-13 10:11:00,37.9,35.2,29.83,West,270,0.0,0.0,90,0.00,,,0.53,meteohub,2013-01-13 15:11:00,
2013-01-13 10:16:00,37.9,35.2,29.83,West,270,0.0,0.0,90,0.00,,,0.53,meteohub,2013-01-13 15:16:00,
2013-01-13 10:21:00,37.9,35.2,29.83,West,270,0.0,0.0,90,0.00,,,0.53,meteohub,2013-01-13 15:21:00,
2013-01-13 10:26:00,37.9,35.2,29.84,West,270,0.0,0.0,90,0.00,,,0.53,meteohub,2013-01-13 15:26:00,
2013-01-13 10:31:00,38.1,35.8,29.84,South,180,0.0,0.0,91,0.00,,,0.53,meteohub,2013-01-13 15:31:00,
2013-01-13 10:37:00,38.1,35.8,29.84,NE,45,0.0,0.0,91,0.00,,,0.53,meteohub,2013-01-13 15:37:00,
2013-01-13 10:42:00,38.3,36.0,29.86,SW,225,4.0,0.0,91,0.00,,,0.53,meteohub,2013-01-13 15:42:00,
2013-01-13 10:47:00,38.1,35.8,29.86,NW,315,0.0,4.0,91,0.00,,,0.53,meteohub,2013-01-13 15:47:00,
2013-01-13 10:52:00,38.1,35.8,29.85,West,270,0.0,4.0,91,0.00,,,0.53,meteohub,2013-01-13 15:52:00,
2013-01-13 10:57:00,38.1,35.8,29.85,NW,315,0.0,4.0,91,0.00,,,0.53,meteohub,2013-01-13 15:57:00,
2013-01-13 11:02:00,38.1,35.8,29.85,West,270,0.0,4.0,91,0.00,,,0.53,meteohub,2013-01-13 16:02:00,
2013-01-13 11:07:00,38.1,35.8,29.85,NW,315,0.0,0.0,91,0.00,,,0.53,meteohub,2013-01-13 16:07:00,
2013-01-13 11:12:00,38.3,36.0,29.85,North,0,2.0,0.0,91,0.00,,,0.53,meteohub,2013-01-13 16:12:00,
2013-01-13 11:17:00,38.3,36.0,29.85,NW,315,2.0,2.0,91,0.00,,,0.53,meteohub,2013-01-13 16:17:00,
2013-01-13 11:22:00,38.3,36.0,29.86,NW,315,2.0,2.0,91,0.00,,,0.53,meteohub,2013-01-13 16:22:00,
2013-01-13 11:27:00,38.3,36.0,29.85,NW,315,2.0,2.0,91,0.00,,,0.53,meteohub,2013-01-13 16:27:00,
2013-01-13 11:32:00,38.3,36.0,29.85,NE,45,0.0,2.0,91,0.00,,,0.53,meteohub,2013-01-13 16:32:00,
2013-01-13 11:37:00,38.3,36.0,29.84,North,0,3.0,3.0,91,0.00,,,0.53,meteohub,2013-01-13 16:37:00,
2013-01-13 11:43:00,38.3,36.1,29.85,North,0,1.0,3.0,92,0.00,,,0.53,meteohub,2013-01-13 16:43:00,
2013-01-13 11:48:00,38.3,36.1,29.84,NW,315,0.0,3.0,92,0.00,,,0.53,meteohub,2013-01-13 16:48:00,
2013-01-13 11:53:00,38.5,36.3,29.85,NW,315,3.0,3.0,92,0.00,,,0.53,meteohub,2013-01-13 16:53:00,
2013-01-13 11:58:00,38.5,36.3,29.85,West,270,3.0,4.0,92,0.00,,,0.53,meteohub,2013-01-13 16:58:00,
2013-01-13 12:03:00,38.7,36.5,29.84,NW,315,0.0,4.0,92,0.00,,,0.53,meteohub,2013-01-13 17:03:00,
2013-01-13 12:08:00,38.7,36.5,29.84,North,0,2.0,4.0,92,0.00,,,0.53,meteohub,2013-01-13 17:08:00,
2013-01-13 12:13:00,38.7,36.5,29.83,North,0,0.0,4.0,92,0.00,,,0.53,meteohub,2013-01-13 17:13:00,
2013-01-13 12:18:00,38.7,36.5,29.85,North,0,0.0,4.0,92,0.00,,,0.53,meteohub,2013-01-13 17:18:00,
2013-01-13 12:24:00,38.7,36.5,29.82,North,0,0.0,4.0,92,0.00,,,0.53,meteohub,2013-01-13 17:24:00,
2013-01-13 12:29:00,38.7,36.5,29.77,East,90,2.0,2.0,92,0.00,,,0.53,meteohub,2013-01-13 17:29:00,
2013-01-13 12:34:00,38.8,36.7,29.82,NE,45,2.0,5.0,92,0.00,,,0.53,meteohub,2013-01-13 17:34:00,
2013-01-13 12:39:00,38.8,36.7,29.83,West,270,3.0,5.0,92,0.00,,,0.53,meteohub,2013-01-13 17:39:00,
2013-01-13 12:44:00,38.7,36.5,29.83,West,270,2.0,5.0,92,0.00,,,0.53,meteohub,2013-01-13 17:44:00,
2013-01-13 12:49:00,38.7,36.5,29.84,West,270,2.0,4.0,92,0.00,,,0.53,meteohub,2013-01-13 17:49:00,
2013-01-13 12:54:00,38.7,36.5,29.84,North,0,0.0,4.0,92,0.00,,,0.53,meteohub,2013-01-13 17:54:00,
2013-01-13 12:59:00,38.7,36.5,29.85,NW,315,3.0,4.0,92,0.00,,,0.53,meteohub,2013-01-13 17:59:00,
2013-01-13 13:05:00,38.7,36.5,29.85,NE,45,2.0,3.0,92,0.00,,,0.53,meteohub,2013-01-13 18:05:00,
2013-01-13 13:10:00,38.7,36.5,29.86,NW,315,2.0,3.0,92,0.00,,,0.53,meteohub,2013-01-13 18:10:00,
2013-01-13 13:15:00,38.7,36.5,29.85,West,270,0.0,4.0,92,0.00,,,0.53,meteohub,2013-01-13 18:15:00,
2013-01-13 13:20:00,38.5,36.3,29.85,NW,315,0.0,4.0,92,0.00,,,0.53,meteohub,2013-01-13 18:20:00,
2013-01-13 13:25:00,38.5,36.3,29.84,North,0,2.0,4.0,92,0.00,,,0.53,meteohub,2013-01-13 18:25:00,
2013-01-13 13:30:00,38.5,36.3,29.85,NW,315,2.0,4.0,92,0.00,,,0.53,meteohub,2013-01-13 18:30:00,
2013-01-13 13:35:00,38.5,36.3,29.85,NW,315,3.0,4.0,92,0.00,,,0.53,meteohub,2013-01-13 18:35:00,
2013-01-13 13:41:00,38.5,36.3,29.84,NW,315,0.0,6.0,92,0.00,,,0.53,meteohub,2013-01-13 18:41:00,
2013-01-13 13:46:00,38.5,36.3,29.84,NW,315,3.0,6.0,92,0.00,,,0.53,meteohub,2013-01-13 18:46:00,
2013-01-13 13:51:00,38.5,36.3,29.83,NW,315,2.0,6.0,92,0.00,,,0.53,meteohub,2013-01-13 18:51:00,
2013-01-13 13:56:00,38.5,36.3,29.83,NW,315,2.0,3.0,92,0.00,,,0.53,meteohub,2013-01-13 18:56:00,
2013-01-13 14:01:00,38.3,36.1,29.83,North,0,2.0,4.0,92,0.00,,,0.53,meteohub,2013-01-13 19:01:00,
2013-01-13 14:06:00,38.3,36.0,29.83,NW,315,2.0,4.0,91,0.00,,,0.53,meteohub,2013-01-13 19:06:00,
2013-01-13 14:11:00,38.1,35.8,29.81,NW,315,2.0,4.0,91,0.00,,,0.53,meteohub,2013-01-13 19:11:00,
2013-01-13 14:17:00,38.3,36.0,29.81,SE,135,2.0,4.0,91,0.00,,,0.53,meteohub,2013-01-13 19:17:00,
2013-01-13 14:22:00,38.3,36.0,29.79,North,0,2.0,4.0,91,0.00,,,0.53,meteohub,2013-01-13 19:22:00,
2013-01-13 14:27:00,38.1,35.8,29.80,NW,315,2.0,4.0,91,0.00,,,0.53,meteohub,2013-01-13 19:27:00,
2013-01-13 14:32:00,38.1,35.8,29.79,NW,315,2.0,4.0,91,0.00,,,0.53,meteohub,2013-01-13 19:32:00,
2013-01-13 14:37:00,38.1,35.8,29.80,North,0,0.0,4.0,91,0.00,,,0.53,meteohub,2013-01-13 19:37:00,
2013-01-13 14:42:00,38.1,35.8,29.79,NE,45,0.0,4.0,91,0.00,,,0.53,meteohub,2013-01-13 19:42:00,
2013-01-13 14:47:00,37.9,35.6,29.80,NW,315,0.0,4.0,91,0.00,,,0.53,meteohub,2013-01-13 19:47:00,
2013-01-13 14:52:00,37.9,35.6,29.81,North,0,3.0,3.0,91,0.00,,,0.53,meteohub,2013-01-13 19:52:00,
2013-01-13 14:57:00,37.9,35.6,29.83,West,270,0.0,3.0,91,0.00,,,0.53,meteohub,2013-01-13 19:57:00,
2013-01-13 15:02:00,37.9,35.6,29.83,West,270,0.0,3.0,91,0.00,,,0.53,meteohub,2013-01-13 20:02:00,
2013-01-13 15:07:00,37.9,35.6,29.84,NW,315,4.0,4.0,91,0.00,,,0.53,meteohub,2013-01-13 20:07:00,
2013-01-13 15:12:00,37.8,35.4,29.85,NW,315,4.0,4.0,91,0.00,,,0.53,meteohub,2013-01-13 20:12:00,
2013-01-13 15:17:00,37.6,35.2,29.85,North,0,4.0,4.0,91,0.00,,,0.53,meteohub,2013-01-13 20:17:00,
2013-01-13 15:22:00,37.4,35.1,29.86,NW,315,2.0,4.0,91,0.00,,,0.53,meteohub,2013-01-13 20:22:00,
2013-01-13 15:27:00,37.4,34.7,29.86,North,0,2.0,4.0,90,0.00,,,0.53,meteohub,2013-01-13 20:27:00,
2013-01-13 15:33:00,37.2,33.4,29.87,North,0,2.0,4.0,86,0.00,,,0.53,meteohub,2013-01-13 20:33:00,
2013-01-13 15:38:00,37.2,33.4,29.87,NW,315,2.0,5.0,86,0.00,,,0.53,meteohub,2013-01-13 20:38:00,
2013-01-13 15:43:00,37.0,33.3,29.87,North,0,2.0,5.0,86,0.00,,,0.53,meteohub,2013-01-13 20:43:00,
2013-01-13 15:48:00,37.0,33.3,29.87,NW,315,2.0,5.0,86,0.00,,,0.53,meteohub,2013-01-13 20:48:00,
2013-01-13 15:53:00,37.0,33.3,29.88,North,0,3.0,4.0,86,0.00,,,0.53,meteohub,2013-01-13 20:53:00,
2013-01-13 15:58:00,36.9,33.1,29.88,NW,315,2.0,4.0,86,0.00,,,0.53,meteohub,2013-01-13 20:58:00,
2013-01-13 16:03:00,36.9,33.1,29.88,North,0,5.0,5.0,86,0.01,,,0.54,meteohub,2013-01-13 21:03:00,
2013-01-13 16:08:00,36.7,32.9,29.88,North,0,3.0,5.0,86,0.01,,,0.54,meteohub,2013-01-13 21:08:00,
2013-01-13 16:14:00,36.7,32.9,29.88,NW,315,2.0,5.0,86,0.01,,,0.54,meteohub,2013-01-13 21:14:00,
2013-01-13 16:19:00,36.5,32.7,29.89,North,0,4.0,5.0,86,0.01,,,0.54,meteohub,2013-01-13 21:19:00,
2013-01-13 16:24:00,36.3,32.5,29.90,NW,315,3.0,5.0,86,0.01,,,0.54,meteohub,2013-01-13 21:24:00,
2013-01-13 16:29:00,36.1,32.4,29.89,NW,315,2.0,7.0,86,0.01,,,0.54,meteohub,2013-01-13 21:29:00,
2013-01-13 16:34:00,36.1,32.4,29.89,North,0,3.0,7.0,86,0.01,,,0.54,meteohub,2013-01-13 21:34:00,
2013-01-13 16:39:00,36.0,32.2,29.89,NW,315,0.0,7.0,86,0.01,,,0.54,meteohub,2013-01-13 21:39:00,
2013-01-13 16:44:00,36.0,32.2,29.88,North,0,0.0,4.0,86,0.01,,,0.54,meteohub,2013-01-13 21:44:00,
2013-01-13 16:50:00,35.8,32.0,29.88,North,0,2.0,4.0,86,0.01,,,0.54,meteohub,2013-01-13 21:50:00,
2013-01-13 16:55:00,35.8,32.0,29.88,North,0,3.0,4.0,86,0.01,,,0.54,meteohub,2013-01-13 21:55:00,
2013-01-13 17:00:00,35.6,31.8,29.88,NE,45,3.0,3.0,86,0.00,,,0.54,meteohub,2013-01-13 22:00:00,
2013-01-13 17:05:00,35.4,32.0,29.88,SW,225,1.0,4.0,87,0.00,,,0.54,meteohub,2013-01-13 22:05:00,
2013-01-13 17:10:00,35.4,32.0,29.89,North,0,1.0,4.0,87,0.01,,,0.56,meteohub,2013-01-13 22:10:00,
2013-01-13 17:15:00,35.4,32.0,29.88,North,0,2.0,4.0,87,0.02,,,0.57,meteohub,2013-01-13 22:15:00,
2013-01-13 17:20:00,35.4,32.0,29.89,South,180,2.0,2.0,87,0.04,,,0.58,meteohub,2013-01-13 22:20:00,
2013-01-13 17:25:00,35.4,32.0,29.89,NW,315,2.0,2.0,87,0.06,,,0.60,meteohub,2013-01-13 22:25:00,
2013-01-13 17:31:00,35.4,32.0,29.88,NW,315,1.0,2.0,87,0.06,,,0.60,meteohub,2013-01-13 22:31:00,
2013-01-13 17:36:00,35.4,32.0,29.88,NW,315,1.0,2.0,87,0.07,,,0.61,meteohub,2013-01-13 22:36:00,
2013-01-13 17:41:00,35.2,31.8,29.88,SW,225,0.0,2.0,87,0.07,,,0.61,meteohub,2013-01-13 22:41:00,
2013-01-13 17:46:00,35.2,31.8,29.88,SW,225,0.0,1.0,87,0.07,,,0.61,meteohub,2013-01-13 22:46:00,
2013-01-13 17:51:00,35.2,31.8,29.86,East,90,0.0,1.0,87,0.08,,,0.63,meteohub,2013-01-13 22:51:00,
2013-01-13 17:56:00,35.2,31.8,29.87,West,270,0.0,0.0,87,0.09,,,0.64,meteohub,2013-01-13 22:56:00,
2013-01-13 18:02:00,35.1,31.6,29.87,SW,225,2.0,0.0,87,0.09,,,0.64,meteohub,2013-01-13 23:02:00,
2013-01-13 18:07:00,35.1,31.6,29.87,East,90,0.0,2.0,87,0.09,,,0.64,meteohub,2013-01-13 23:07:00,
2013-01-13 18:12:00,35.1,31.6,29.88,West,270,0.0,2.0,87,0.08,,,0.64,meteohub,2013-01-13 23:12:00,
2013-01-13 18:17:00,35.1,31.6,29.87,West,270,0.0,2.0,87,0.07,,,0.64,meteohub,2013-01-13 23:17:00,
2013-01-13 18:22:00,35.1,31.6,29.88,SW,225,0.0,0.0,87,0.06,,,0.64,meteohub,2013-01-13 23:22:00,
2013-01-13 18:27:00,35.1,31.6,29.87,SW,225,0.0,0.0,87,0.04,,,0.64,meteohub,2013-01-13 23:27:00,
2013-01-13 18:32:00,35.1,31.6,29.88,NW,315,0.0,0.0,87,0.02,,,0.64,meteohub,2013-01-13 23:32:00,
2013-01-13 18:37:00,35.1,31.8,29.88,SW,225,0.0,0.0,88,0.02,,,0.64,meteohub,2013-01-13 23:37:00,
2013-01-13 18:42:00,35.1,31.8,29.89,SW,225,2.0,0.0,88,0.02,,,0.64,meteohub,2013-01-13 23:42:00,
2013-01-13 18:47:00,34.9,31.6,29.89,West,270,0.0,2.0,88,0.01,,,0.64,meteohub,2013-01-13 23:47:00,
2013-01-13 18:52:00,34.9,31.6,29.88,West,270,0.0,2.0,88,0.01,,,0.64,meteohub,2013-01-13 23:52:00,
2013-01-13 18:57:00,34.7,31.5,29.89,SW,225,2.0,2.0,88,0.00,,,0.64,meteohub,2013-01-13 23:57:00,
2013-01-13 19:02:00,34.7,31.5,29.89,West,270,1.0,2.0,88,0.00,,,0.64,meteohub,2013-01-14 00:02:00,
2013-01-13 19:07:00,34.7,31.5,29.90,West,270,1.0,2.0,88,0.00,,,0.64,meteohub,2013-01-14 00:07:00,
2013-01-13 19:12:00,34.7,31.5,29.89,NE,45,0.0,2.0,88,0.01,,,0.65,meteohub,2013-01-14 00:12:00,
2013-01-13 19:17:00,34.5,31.3,29.89,SW,225,2.0,2.0,88,0.01,,,0.65,meteohub,2013-01-14 00:17:00,
2013-01-13 19:22:00,34.5,31.3,29.90,West,270,0.0,3.0,88,0.01,,,0.65,meteohub,2013-01-14 00:22:00,
2013-01-13 19:27:00,34.3,31.1,29.90,NW,315,0.0,3.0,88,0.02,,,0.66,meteohub,2013-01-14 00:27:00,
2013-01-13 19:32:00,34.2,30.9,29.90,West,270,0.0,3.0,88,0.02,,,0.66,meteohub,2013-01-14 00:32:00,
2013-01-13 19:37:00,34.2,30.9,29.90,West,270,3.0,3.0,88,0.02,,,0.66,meteohub,2013-01-14 00:37:00,
2013-01-13 19:42:00,34.0,30.6,29.91,NW,315,2.0,4.0,87,0.02,,,0.66,meteohub,2013-01-14 00:42:00,
2013-01-13 19:47:00,33.8,30.4,29.90,West,270,2.0,4.0,87,0.02,,,0.66,meteohub,2013-01-14 00:47:00,
2013-01-13 19:52:00,33.8,30.4,29.91,West,270,1.0,4.0,87,0.02,,,0.66,meteohub,2013-01-14 00:52:00,
2013-01-13 19:57:00,33.6,30.4,29.91,North,0,0.0,3.0,88,0.02,,,0.66,meteohub,2013-01-14 00:57:00,
2013-01-13 20:02:00,33.6,30.4,29.91,North,0,0.0,3.0,88,0.02,,,0.66,meteohub,2013-01-14 01:02:00,
2013-01-13 20:07:00,33.6,30.4,29.91,West,270,0.0,3.0,88,0.02,,,0.66,meteohub,2013-01-14 01:07:00,
2013-01-13 20:12:00,33.6,30.4,29.91,West,270,2.0,3.0,88,0.01,,,0.66,meteohub,2013-01-14 01:12:00,
2013-01-13 20:17:00,33.6,30.4,29.91,SW,225,3.0,3.0,88,0.01,,,0.66,meteohub,2013-01-14 01:17:00,
2013-01-13 20:22:00,33.4,30.2,29.91,West,270,0.0,3.0,88,0.00,,,0.66,meteohub,2013-01-14 01:22:00,
2013-01-13 20:27:00,33.4,30.2,29.91,NW,315,2.0,3.0,88,0.00,,,0.66,meteohub,2013-01-14 01:27:00,
2013-01-13 20:32:00,33.4,30.2,29.92,SW,225,0.0,3.0,88,0.00,,,0.66,meteohub,2013-01-14 01:32:00,
2013-01-13 20:37:00,33.3,30.0,29.91,West,270,3.0,3.0,88,0.00,,,0.66,meteohub,2013-01-14 01:37:00,
2013-01-13 20:42:00,33.3,30.0,29.92,NW,315,1.0,3.0,88,0.00,,,0.66,meteohub,2013-01-14 01:42:00,
2013-01-13 20:47:00,33.3,30.0,29.92,SW,225,3.0,3.0,88,0.00,,,0.66,meteohub,2013-01-14 01:47:00,
2013-01-13 20:52:00,33.1,29.8,29.92,West,270,2.0,4.0,88,0.00,,,0.66,meteohub,2013-01-14 01:52:00,
2013-01-13 20:57:00,33.1,29.8,29.92,West,270,2.0,4.0,88,0.00,,,0.66,meteohub,2013-01-14 01:57:00,
2013-01-13 21:02:00,33.1,29.8,29.93,West,270,0.0,4.0,88,0.00,,,0.66,meteohub,2013-01-14 02:02:00,
2013-01-13 21:07:00,33.1,29.8,29.94,West,270,0.0,2.0,88,0.00,,,0.66,meteohub,2013-01-14 02:07:00,
2013-01-13 21:12:00,32.9,29.7,29.94,North,0,4.0,4.0,88,0.00,,,0.66,meteohub,2013-01-14 02:12:00,
2013-01-13 21:17:00,32.7,29.5,29.94,NW,315,3.0,4.0,88,0.00,,,0.66,meteohub,2013-01-14 02:17:00,
2013-01-13 21:22:00,32.5,29.3,29.94,SW,225,2.0,8.0,88,0.00,,,0.66,meteohub,2013-01-14 02:22:00,
2013-01-13 21:27:00,32.4,29.1,29.94,North,0,7.0,8.0,88,0.00,,,0.66,meteohub,2013-01-14 02:27:00,
2013-01-13 21:32:00,32.4,29.1,29.94,West,270,0.0,8.0,88,0.00,,,0.66,meteohub,2013-01-14 02:32:00,
2013-01-13 21:37:00,32.2,28.9,29.94,West,270,0.0,7.0,88,0.00,,,0.66,meteohub,2013-01-14 02:37:00,
2013-01-13 21:42:00,32.0,28.9,29.94,West,270,0.0,7.0,88,0.00,,,0.66,meteohub,2013-01-14 02:42:00,
2013-01-13 21:47:00,31.8,28.9,29.94,West,270,0.0,0.0,89,0.00,,,0.66,meteohub,2013-01-14 02:47:00,
2013-01-13 21:52:00,31.6,28.8,29.94,West,270,0.0,0.0,89,0.00,,,0.66,meteohub,2013-01-14 02:52:00,
2013-01-13 21:57:00,31.6,28.8,29.94,West,270,0.0,0.0,89,0.00,,,0.66,meteohub,2013-01-14 02:57:00,
2013-01-13 22:02:00,31.6,28.8,29.95,West,270,0.0,0.0,89,0.00,,,0.66,meteohub,2013-01-14 03:02:00,
2013-01-13 22:08:00,31.6,28.8,29.94,West,270,0.0,0.0,89,0.00,,,0.66,meteohub,2013-01-14 03:08:00,
2013-01-13 22:13:00,31.5,28.6,29.94,West,270,0.0,0.0,89,0.00,,,0.66,meteohub,2013-01-14 03:13:00,
2013-01-13 22:18:00,31.5,28.6,29.95,West,270,0.0,0.0,89,0.00,,,0.66,meteohub,2013-01-14 03:18:00,
2013-01-13 22:23:00,31.5,28.4,29.94,West,270,0.0,0.0,88,0.00,,,0.66,meteohub,2013-01-14 03:23:00,
2013-01-13 22:28:00,31.5,28.4,29.94,West,270,0.0,0.0,88,0.00,,,0.66,meteohub,2013-01-14 03:28:00,
2013-01-13 22:33:00,31.3,28.2,29.95,West,270,0.0,0.0,88,0.00,,,0.66,meteohub,2013-01-14 03:33:00,
2013-01-13 22:38:00,31.1,28.0,29.96,West,270,0.0,0.0,88,0.00,,,0.66,meteohub,2013-01-14 03:38:00,
2013-01-13 22:43:00,30.7,27.7,29.96,West,270,0.0,0.0,88,0.00,,,0.66,meteohub,2013-01-14 03:43:00,
2013-01-13 22:48:00,30.4,27.0,29.96,West,270,0.0,0.0,87,0.00,,,0.66,meteohub,2013-01-14 03:48:00,
2013-01-13 22:54:00,30.4,27.0,29.97,West,270,0.0,0.0,87,0.00,,,0.66,meteohub,2013-01-14 03:54:00,
2013-01-13 22:59:00,30.2,26.8,29.97,West,270,0.0,0.0,87,0.00,,,0.66,meteohub,2013-01-14 03:59:00,
2013-01-13 23:04:00,30.0,26.6,29.97,West,270,0.0,0.0,87,0.00,,,0.66,meteohub,2013-01-14 04:04:00,
2013-01-13 23:09:00,29.7,26.2,29.98,West,270,0.0,0.0,87,0.00,,,0.66,meteohub,2013-01-14 04:09:00,
2013-01-13 23:14:00,29.5,26.1,29.98,West,270,0.0,0.0,87,0.00,,,0.66,meteohub,2013-01-14 04:14:00,
2013-01-13 23:19:00,29.5,26.1,29.98,West,270,0.0,0.0,87,0.00,,,0.66,meteohub,2013-01-14 04:19:00,
2013-01-13 23:24:00,29.3,25.9,29.98,West,270,0.0,0.0,87,0.00,,,0.66,meteohub,2013-01-14 04:24:00,
2013-01-13 23:29:00,29.3,25.7,29.99,West,270,0.0,0.0,86,0.00,,,0.66,meteohub,2013-01-14 04:29:00,
2013-01-13 23:35:00,29.3,25.7,29.99,West,270,0.0,0.0,86,0.00,,,0.66,meteohub,2013-01-14 04:35:00,
2013-01-13 23:40:00,29.1,25.5,30.00,West,270,0.0,0.0,86,0.00,,,0.66,meteohub,2013-01-14 04:40:00,
2013-01-13 23:45:00,28.9,25.0,30.00,West,270,0.0,0.0,85,0.00,,,0.66,meteohub,2013-01-14 04:45:00,
2013-01-13 23:50:00,28.8,24.8,30.00,West,270,0.0,0.0,85,0.00,,,0.66,meteohub,2013-01-14 04:50:00,
2013-01-13 23:55:00,28.6,24.4,30.01,West,270,0.0,0.0,84,0.00,,,0.66,meteohub,2013-01-14 04:55:00,